Date,TemperatureHighF,TemperatureAvgF,TemperatureLowF,DewpointHighF,DewpointAvgF,DewpointLowF,HumidityHigh,HumidityAvg,HumidityLow,PressureMaxIn,PressureMinIn,WindSpeedMaxMPH,WindSpeedAvgMPH,GustSpeedMaxMPH,PrecipitationSumIn
2013-1-1,32,26,16,30,23,12,93,85,75,30.10,29.96,5,0,9,0.00
2013-1-2,24,15,6,12,6,2,86,69,47,30.21,30.09,3,0,6,0.01
2013-1-3,31,21,10,24,13,1,78,70,62,30.24,30.14,5,1,13,0.00
2013-1-4,30,25,19,23,17,14,83,71,59,30.27,30.22,6,2,18,0.01
2013-1-5,35,27,19,30,22,15,88,82,68,30.26,30.05,7,2,12,0.00
2013-1-6,36,30,22,31,25,18,84,79,71,30.29,29.93,6,3,20,0.00
2013-1-7,35,24,14,25,19,11,90,82,66,30.39,30.15,9,2,16,0.00
2013-1-8,43,33,24,31,26,20,85,75,61,30.22,30.11,5,2,11,0.00
2013-1-9,49,41,32,40,34,29,93,78,59,30.41,30.09,6,2,12,0.10
2013-1-10,45,37,28,40,31,26,93,81,61,30.42,29.94,6,2,16,0.06
2013-1-11,59,53,45,53,48,40,94,83,69,29.94,29.72,13,5,24,0.43
2013-1-12,64,55,49,60,52,45,95,88,76,29.88,29.57,13,3,22,1.48
2013-1-13,64,41,24,60,39,18,93,90,77,30.12,29.49,12,2,22,0.55
2013-1-14,24,21,18,19,16,12,83,78,72,30.39,30.12,7,2,12,0.00
2013-1-15,32,27,21,26,20,16,84,75,64,30.32,30.01,9,5,17,0.00
2013-1-16,34,31,29,26,24,20,87,74,60,30.01,29.89,7,2,12,0.00
2013-1-17,40,32,24,30,24,15,81,71,57,30.34,30.00,7,1,18,0.00
2013-1-18,38,29,19,25,19,14,82,68,50,30.42,30.06,12,5,20,0.00
2013-1-19,53,44,33,36,29,22,71,57,44,30.07,29.76,17,9,30,0.00
2013-1-20,46,29,22,36,15,7,71,57,40,30.18,29.80,10,2,32,0.00
2013-1-21,23,16,9,13,6,-5,83,62,51,30.22,30.06,8,2,20,0.00
2013-1-22,18,11,4,-1,-3,-6,67,54,37,30.34,30.21,4,1,16,0.00
2013-1-23,22,17,11,12,3,-2,64,53,44,30.29,30.03,7,1,13,0.00
2013-1-24,22,18,13,12,6,-3,81,58,34,30.54,30.08,8,2,15,0.00
2013-1-25,26,22,18,18,13,5,85,69,51,30.35,29.96,4,2,13,0.00
2013-1-26,31,21,14,18,14,10,86,74,56,30.36,30.04,5,1,11,0.01
2013-1-27,39,28,20,37,22,13,96,76,65,30.34,29.98,12,2,22,0.08
2013-1-28,51,46,39,50,44,37,98,94,90,30.01,29.87,9,6,19,0.20
2013-1-29,64,56,50,57,53,48,100,89,79,29.89,29.31,18,10,32,0.00
2013-1-30,64,48,28,58,43,22,94,85,72,29.51,29.14,19,7,33,0.72
2013-1-31,28,23,11,23,15,1,84,71,61,30.05,29.51,10,5,28,0.00
2013-2-1,17,11,5,7,1,-4,75,64,56,30.36,30.05,7,3,20,0.00
2013-2-2,28,22,15,23,17,7,85,79,68,30.24,29.92,8,3,16,0.00
2013-2-3,24,18,11,19,12,6,84,76,69,30.04,29.89,4,1,16,0.00
2013-2-4,35,27,17,31,22,12,92,80,68,30.03,29.71,9,3,17,0.02
2013-2-5,36,30,22,31,25,18,89,81,74,29.94,29.76,8,2,16,0.00
2013-2-6,35,31,28,29,24,19,84,74,60,30.19,29.94,6,1,12,0.00
2013-2-7,53,41,31,42,32,25,92,71,53,30.10,29.68,4,1,12,0.21
2013-2-8,44,34,30,42,29,23,93,81,70,30.27,29.70,5,2,15,0.01
2013-2-9,40,31,21,25,22,18,89,70,51,30.34,30.10,4,1,14,0.00
2013-2-10,52,43,32,47,34,21,91,70,55,30.10,29.61,16,6,33,0.04
2013-2-11,50,41,33,47,31,24,91,68,55,29.95,29.59,12,6,29,0.00
2013-2-12,46,34,26,29,26,21,87,73,49,30.06,29.86,6,1,15,0.00
2013-2-13,44,33,28,28,25,23,89,75,45,29.86,29.69,8,2,13,0.00
2013-2-14,50,39,31,37,32,28,90,76,56,29.90,29.69,13,5,23,0.00
2013-2-15,38,30,22,30,25,16,90,79,59,30.09,29.89,7,1,17,0.00
2013-2-16,25,22,19,19,13,6,85,67,52,30.07,30.01,4,1,16,0.00
2013-2-17,31,21,9,15,9,4,84,61,32,30.18,30.06,6,1,14,0.00
2013-2-18,58,41,26,42,27,11,86,58,40,30.08,29.50,18,9,33,0.15
2013-2-19,46,28,22,42,20,11,90,73,61,30.06,29.48,19,7,36,0.04
2013-2-20,27,20,13,16,10,5,73,64,49,30.26,30.06,7,2,21,0.00
2013-2-21,30,25,18,25,18,12,86,75,64,30.28,29.94,10,3,19,0.00
2013-2-22,36,33,28,33,30,25,94,88,78,29.95,29.77,9,3,20,0.04
2013-2-23,38,31,24,27,22,19,82,71,54,29.92,29.83,7,1,15,0.06
2013-2-24,42,31,21,26,22,18,88,71,51,30.07,29.90,3,0,11,0.02
2013-2-25,44,35,26,28,24,20,79,65,50,30.08,29.77,8,2,19,0.00
2013-2-26,42,38,34,41,34,25,94,83,61,29.78,29.28,14,5,26,0.95
2013-2-27,41,35,32,39,32,27,93,87,79,29.61,29.38,12,6,23,0.02
2013-2-28,38,34,32,33,30,28,91,86,80,29.89,29.59,5,1,13,0.05
2013-3-1,34,32,29,31,28,22,92,84,73,29.99,29.86,10,3,16,0.02
2013-3-2,30,28,26,23,20,17,79,71,60,30.03,29.97,10,3,17,0.00
2013-3-3,32,28,22,23,19,16,84,71,53,30.03,29.98,4,0,12,0.00
2013-3-4,39,30,18,27,21,15,88,70,48,30.07,29.89,5,1,13,0.00
2013-3-5,36,34,28,33,30,26,93,84,70,29.89,29.55,4,1,15,0.08
2013-3-6,33,30,27,28,26,23,91,86,80,30.19,29.65,2,0,10,0.15
2013-3-7,38,32,29,29,26,23,89,77,63,30.31,30.18,4,0,7,0.25
2013-3-8,40,33,25,26,24,21,87,68,52,30.40,30.28,4,0,15,0.00
2013-3-9,53,43,33,37,31,24,76,62,48,30.28,29.86,8,2,18,0.00
2013-3-10,64,56,50,41,37,34,60,48,34,29.86,29.63,15,8,29,0.01
2013-3-11,59,47,34,50,41,29,92,79,47,29.76,29.49,17,7,28,0.13
2013-3-12,44,36,32,31,27,23,89,71,50,29.95,29.76,8,4,21,0.00
2013-3-13,33,28,25,28,21,17,86,75,63,30.25,29.93,5,2,19,0.05
2013-3-14,44,31,20,30,20,14,87,65,32,30.28,30.08,5,1,14,0.01
2013-3-15,50,39,30,38,33,28,93,79,59,30.08,29.67,6,2,13,0.00
2013-3-16,48,42,35,42,38,30,89,84,73,29.94,29.50,8,2,14,0.00
2013-3-17,38,34,30,30,26,23,84,75,64,30.07,29.88,11,6,20,0.00
2013-3-18,43,37,33,41,34,28,94,89,79,29.88,29.50,8,3,18,0.20
2013-3-19,42,33,26,34,19,14,86,56,33,30.02,29.73,11,5,29,0.00
2013-3-20,34,28,23,18,14,7,71,55,41,30.02,29.93,8,2,20,0.00
2013-3-21,35,25,18,15,12,7,75,57,38,29.97,29.90,4,1,13,0.00
2013-3-22,44,31,20,22,16,12,78,55,29,29.99,29.91,4,0,13,0.00
2013-3-23,47,39,33,26,22,18,64,50,36,29.99,29.80,11,2,16,0.00
2013-3-24,36,33,29,30,28,23,96,81,59,29.81,29.37,17,8,27,0.00
2013-3-25,34,30,28,32,28,26,93,90,81,29.90,29.39,13,3,19,0.25
2013-3-26,39,34,30,29,26,21,89,74,50,30.16,29.90,4,1,11,0.00
2013-3-27,43,35,26,28,24,20,86,65,44,30.23,30.16,3,0,14,0.00
2013-3-28,48,37,25,30,24,20,84,63,40,30.28,30.20,4,0,12,0.00
2013-3-29,55,42,29,35,29,24,85,63,38,30.23,30.11,3,0,12,0.00
2013-3-30,58,46,31,36,32,27,87,61,37,30.13,29.81,6,1,17,0.00
2013-3-31,61,50,44,44,39,34,90,69,39,29.81,29.65,6,1,19,0.05
2013-4-1,48,40,33,42,24,15,82,54,31,30.06,29.72,7,1,19,0.00
2013-4-2,45,35,25,22,17,12,77,51,27,30.19,30.06,3,0,13,0.00
2013-4-3,46,37,26,22,17,11,75,45,29,30.33,30.18,11,2,19,0.00
2013-4-4,58,44,33,34,20,14,66,42,19,30.25,29.89,2,0,10,0.00
2013-4-5,57,46,34,37,26,20,66,47,31,30.04,29.88,12,2,22,0.00
2013-4-6,67,53,40,38,30,22,56,41,31,30.06,29.71,15,5,29,0.00
2013-4-7,73,64,56,50,41,35,68,43,28,29.83,29.66,12,4,23,0.00
2013-4-8,72,62,56,57,52,49,87,71,56,29.85,29.71,14,5,26,0.00
2013-4-9,80,68,56,60,55,50,84,64,40,29.88,29.74,19,5,35,0.00
2013-4-10,80,70,62,66,61,57,87,73,57,29.78,29.62,16,5,26,0.07
2013-4-11,66,61,52,61,58,50,93,87,78,29.65,29.42,12,4,24,0.72
2013-4-12,52,43,38,50,34,28,93,72,58,29.83,29.44,8,3,22,0.02
2013-4-13,52,45,40,38,33,30,78,64,47,29.91,29.82,9,2,26,0.00
2013-4-14,71,55,40,46,39,33,78,57,33,29.93,29.71,8,2,18,0.00
2013-4-15,70,61,53,56,50,42,78,67,54,29.84,29.72,11,5,19,0.00
2013-4-16,63,56,51,57,51,47,93,84,69,30.07,29.75,12,4,19,0.83
2013-4-17,74,60,50,66,55,47,92,85,76,30.09,29.78,16,3,40,0.80
2013-4-18,76,67,61,65,60,58,92,79,58,29.78,29.43,20,7,38,0.15
2013-4-19,61,42,34,59,35,28,93,77,61,29.88,29.40,9,4,23,0.38
2013-4-20,49,40,32,33,28,23,89,65,38,30.31,29.88,4,1,15,0.00
2013-4-21,54,44,32,32,26,21,69,51,33,30.44,30.27,6,1,14,0.00
2013-4-22,68,54,39,39,32,26,66,45,27,30.27,29.99,4,0,13,0.00
2013-4-23,66,59,51,58,48,37,88,67,49,30.00,29.66,10,3,22,0.21
2013-4-24,81,62,41,80,60,-100,100,94,82,30.08,29.66,4,1,15,0.56
2013-4-25,88,68,39,86,48,-100,100,73,37,30.24,30.04,13,3,23,0.00
2013-4-26,61,49,37,40,33,28,79,56,35,30.34,30.20,5,1,13,0.00
2013-4-27,65,55,45,50,41,33,82,61,37,30.22,29.89,6,1,18,0.00
2013-4-28,63,58,54,59,55,51,94,90,80,29.89,29.71,5,1,14,0.20
2013-4-29,67,60,57,56,54,50,94,81,58,29.87,29.76,5,1,11,0.00
2013-4-30,79,66,52,60,53,48,88,67,47,29.91,29.81,7,2,17,0.00
2013-5-1,84,71,55,59,54,50,87,57,34,30.01,29.90,3,0,13,0.00
2013-5-2,76,69,62,57,54,51,70,58,43,30.05,29.93,3,0,13,0.00
2013-5-3,76,68,62,60,54,42,76,62,41,29.93,29.78,5,1,19,0.00
2013-5-4,68,62,56,52,45,39,87,55,39,29.88,29.81,4,1,15,0.01
2013-5-5,60,57,54,53,50,46,92,79,61,29.89,29.81,6,2,17,0.14
2013-5-6,66,60,55,56,52,46,90,77,67,29.85,29.78,8,2,17,0.08
2013-5-7,71,64,57,58,54,51,90,71,52,29.87,29.81,7,1,14,0.02
2013-5-8,75,66,57,59,56,49,93,72,43,29.89,29.82,5,0,13,0.14
2013-5-9,79,65,57,59,56,48,92,74,36,29.88,29.77,11,1,25,0.36
2013-5-10,69,62,50,62,59,46,93,88,74,29.79,29.67,4,1,11,0.02
2013-5-11,62,51,45,52,45,38,92,80,47,29.93,29.76,6,1,17,0.00
2013-5-12,56,48,38,38,32,25,86,57,33,30.01,29.92,5,0,22,0.00
2013-5-13,64,51,37,37,32,24,87,51,24,30.09,30.00,4,0,14,0.00
2013-5-14,84,66,51,60,47,33,64,52,37,30.00,29.67,13,4,26,0.00
2013-5-15,87,76,66,62,58,54,73,55,38,29.73,29.65,10,3,27,0.00
2013-5-16,81,72,66,66,62,55,86,70,43,29.83,29.69,5,1,15,0.00
2013-5-17,83,69,63,64,62,57,93,79,43,29.91,29.83,14,0,27,0.05
2013-5-18,78,70,64,64,63,61,92,79,58,29.94,29.82,4,0,12,0.01
2013-5-19,85,74,63,68,64,61,93,72,48,29.85,29.72,3,0,12,0.00
2013-5-20,84,77,71,69,67,65,90,73,54,29.81,29.69,10,3,22,0.00
2013-5-21,83,73,63,67,63,58,91,70,44,29.77,29.63,13,4,24,0.06
2013-5-22,75,69,63,64,62,57,91,79,61,29.66,29.58,10,3,21,0.10
2013-5-23,66,60,50,61,54,45,90,82,68,30.03,29.65,3,0,16,0.04
2013-5-24,64,54,47,46,41,34,88,66,33,30.25,30.03,7,1,17,0.00
2013-5-25,64,56,48,46,41,36,82,59,36,30.26,30.10,3,0,9,0.00
2013-5-26,69,61,54,53,45,38,73,57,43,30.19,30.05,3,0,10,0.05
2013-5-27,81,66,55,66,58,52,92,76,54,30.08,29.76,8,2,20,0.69
2013-5-28,81,73,65,67,64,60,85,72,57,29.84,29.75,15,4,31,0.00
2013-5-29,85,77,68,64,61,57,72,59,39,29.89,29.80,11,3,24,0.00
2013-5-30,86,78,70,68,65,62,78,65,49,29.94,29.82,11,4,25,0.01
2013-5-31,77,72,66,69,66,63,93,81,72,29.88,29.74,10,3,21,0.44
2013-6-1,76,70,65,69,65,62,94,82,67,29.77,29.64,13,4,23,0.64
2013-6-2,72,66,60,63,59,52,88,77,63,29.85,29.67,7,1,18,0.00
2013-6-3,67,58,48,54,47,40,84,68,40,29.97,29.85,6,1,13,0.00
2013-6-4,75,65,52,49,44,38,71,50,28,30.03,29.93,3,0,12,0.00
2013-6-5,80,69,58,60,52,46,72,55,41,29.95,29.73,1,0,9,0.00
2013-6-6,76,67,61,62,56,50,85,69,58,29.74,29.65,6,0,11,0.03
2013-6-7,74,66,59,61,56,54,87,71,52,29.76,29.69,4,1,12,0.00
2013-6-8,78,68,59,61,57,53,84,68,48,29.89,29.74,2,0,11,0.00
2013-6-9,81,72,64,67,61,55,88,71,42,29.90,29.71,6,0,16,0.04
2013-6-10,76,70,66,66,63,59,92,78,55,29.73,29.64,7,2,19,0.10
2013-6-11,86,74,62,69,62,59,92,69,42,29.83,29.73,3,0,14,0.02
2013-6-12,90,80,71,73,70,65,89,70,50,29.78,29.51,9,1,25,0.00
2013-6-13,83,73,63,71,61,52,93,70,44,29.85,29.46,10,2,25,0.52
2013-6-14,80,68,56,62,56,52,90,68,44,29.94,29.80,4,0,10,0.00
2013-6-15,83,72,62,62,59,56,81,63,41,29.98,29.80,5,1,16,0.00
2013-6-16,80,72,67,68,64,60,88,76,64,29.87,29.77,6,1,19,0.03
2013-6-17,86,75,67,71,66,62,95,77,46,29.84,29.73,8,0,17,0.00
2013-6-18,82,74,66,67,62,57,89,69,44,29.86,29.74,8,1,17,0.00
2013-6-19,81,71,61,60,57,54,82,62,42,29.98,29.86,3,0,11,0.00
2013-6-20,86,75,64,62,57,52,78,56,34,30.05,29.97,2,0,10,0.00
2013-6-21,88,78,66,65,60,56,73,56,36,30.06,29.91,2,0,13,0.00
2013-6-22,88,76,69,71,67,63,90,76,54,29.99,29.91,6,1,19,0.56
2013-6-23,85,74,67,72,67,61,93,79,54,29.99,29.90,11,1,19,0.00
2013-6-24,85,76,69,70,68,65,90,76,54,30.00,29.87,5,1,15,0.00
2013-6-25,89,78,69,73,69,66,90,76,52,29.89,29.74,7,2,19,0.09
2013-6-26,83,73,67,73,68,65,92,83,69,29.79,29.61,9,1,20,0.21
2013-6-27,88,77,68,72,68,66,95,76,52,29.65,29.55,3,0,13,0.04
2013-6-28,85,75,65,68,63,57,90,67,40,29.56,29.46,8,1,26,0.06
2013-6-29,74,68,62,66,63,60,94,85,70,29.54,29.45,4,0,9,0.03
2013-6-30,74,68,64,66,63,60,94,84,71,29.73,29.53,12,2,23,0.70
2013-7-1,71,67,65,64,62,58,93,82,75,29.82,29.71,10,5,17,0.79
2013-7-2,80,69,63,68,63,60,94,84,60,29.89,29.80,7,1,14,0.33
2013-7-3,80,71,63,67,64,62,95,81,58,29.96,29.86,5,1,15,0.01
2013-7-4,78,70,65,69,65,62,94,85,59,30.01,29.93,2,0,10,0.02
2013-7-5,80,73,67,68,66,64,95,80,60,30.00,29.92,2,0,10,0.00
2013-7-6,73,71,68,68,67,64,93,88,74,29.98,29.91,2,0,11,0.08
2013-7-7,82,72,65,70,66,63,95,81,55,29.98,29.88,3,0,12,0.00
2013-7-8,85,77,69,73,69,66,91,78,61,29.98,29.88,5,1,14,0.00
2013-7-9,88,80,74,76,73,70,88,79,64,29.92,29.81,5,1,15,0.01
2013-7-10,85,78,70,76,71,65,90,81,68,29.83,29.70,6,1,18,0.05
2013-7-11,77,71,63,69,59,54,84,66,48,29.91,29.81,11,4,19,0.00
2013-7-12,78,70,59,61,57,52,88,67,44,29.99,29.90,7,1,14,0.00
2013-7-13,83,74,64,65,62,59,87,67,48,30.00,29.94,4,0,14,0.00
2013-7-14,90,80,70,73,68,64,82,68,51,30.06,29.98,3,0,13,0.00
2013-7-15,88,81,73,72,70,67,89,70,52,30.15,30.06,4,0,13,0.00
2013-7-16,93,82,72,74,71,68,89,70,47,30.19,30.12,2,0,6,0.00
2013-7-17,91,82,73,74,71,67,93,72,50,30.19,30.06,4,0,10,0.00
2013-7-20,71,70,69,68,67,66,92,90,87,29.78,29.74,1,0,5,0.08
2013-7-21,83,75,67,72,68,65,95,80,61,29.83,29.74,1,0,6,0.08
2013-7-22,82,74,69,71,69,67,94,84,65,29.76,29.63,2,0,10,0.07
2013-7-23,89,76,66,74,67,58,93,75,44,29.74,29.60,5,0,18,0.07
2013-7-24,72,65,56,58,55,51,91,71,52,29.89,29.73,9,2,18,0.00
2013-7-25,76,67,56,57,54,50,86,64,41,29.97,29.89,4,0,15,0.00
2013-7-26,79,70,58,62,57,53,87,66,48,29.97,29.81,3,0,14,0.00
2013-7-27,77,69,60,64,59,51,94,73,43,29.82,29.71,6,1,20,0.21
2013-7-28,72,62,51,53,50,47,89,66,44,29.92,29.80,4,1,18,0.21
2013-7-29,80,67,54,58,54,51,93,66,39,30.05,29.92,2,0,13,0.00
2013-7-30,75,68,60,64,59,54,84,73,57,30.08,29.96,2,0,10,0.00
2013-7-31,75,70,66,68,65,62,94,86,78,29.98,29.80,4,0,11,0.05
2013-8-1,83,72,64,68,60,50,95,70,34,29.87,29.80,3,0,18,0.05
2013-8-2,84,70,58,66,60,55,92,73,49,29.87,29.80,9,2,23,0.00
2013-8-3,81,72,65,69,64,56,94,78,50,29.94,29.81,4,0,12,0.34
2013-8-4,76,67,57,58,55,49,86,66,40,30.04,29.94,6,1,14,0.34
2013-8-5,80,69,59,62,57,52,90,68,40,29.99,29.81,3,0,11,0.00
2013-8-6,80,72,65,70,64,59,88,78,70,29.83,29.76,4,0,11,0.00
2013-8-7,84,76,71,72,70,68,96,83,65,29.79,29.72,3,0,12,0.00
2013-8-8,85,77,72,73,72,69,94,85,61,29.81,29.75,4,0,14,0.11
2013-8-9,82,74,70,70,67,63,94,80,56,29.90,29.76,3,0,10,0.04
2013-8-10,85,76,68,68,65,61,90,71,49,29.97,29.90,1,0,7,0.01
2013-8-21,81,77,73,68,67,66,80,71,63,29.95,29.90,0,0,0,0.00
2013-8-22,85,75,68,69,66,65,91,76,53,29.96,29.88,10,1,19,0.00
2013-8-23,82,73,64,68,64,60,95,76,49,30.01,29.92,7,1,13,0.00
2013-8-24,86,75,62,62,57,48,78,56,27,30.13,30.01,1,0,9,0.00
2013-8-25,88,75,62,62,58,52,84,60,33,30.18,30.08,2,0,11,0.00
2013-8-26,90,76,65,72,65,58,84,68,46,30.10,29.93,3,0,13,0.00
2013-8-27,92,80,71,73,70,67,94,74,46,29.94,29.81,3,0,15,0.00
2013-8-28,94,82,73,75,71,66,90,72,49,29.83,29.75,4,0,15,0.00
2013-8-29,88,78,71,71,68,64,94,74,48,29.91,29.83,3,0,10,0.00
2013-8-30,94,79,67,71,68,65,93,70,40,29.85,29.67,3,0,14,0.11
2013-8-31,94,77,71,88,70,65,93,79,44,29.72,29.61,12,1,21,0.70
2013-9-1,108,91,72,100,85,-100,96,84,40,29.66,29.59,6,1,13,0.70
2013-9-2,84,74,67,71,66,59,95,78,48,29.79,29.62,3,0,11,0.00
2013-9-3,75,65,54,60,55,50,92,72,49,29.94,29.79,8,1,16,0.00
2013-9-4,83,68,54,61,56,52,94,69,37,30.03,29.93,2,0,10,0.00
2013-9-5,85,72,60,65,60,55,91,69,44,30.06,29.99,6,0,10,0.00
2013-9-6,83,70,59,56,52,48,74,54,34,30.10,29.96,1,0,9,0.00
2013-9-7,87,74,60,66,60,54,79,64,41,29.96,29.81,3,0,13,0.00
2013-9-8,90,77,67,69,66,64,92,71,44,29.84,29.78,2,0,10,0.00
2013-9-9,92,79,67,71,67,64,92,70,43,29.87,29.78,8,1,18,0.00
2013-9-10,96,81,74,73,69,63,89,70,35,29.97,29.84,6,1,17,0.00
2013-9-11,95,81,70,72,66,59,92,65,32,30.00,29.87,3,0,17,0.00
2013-9-12,83,74,65,70,64,49,94,74,41,29.88,29.73,3,0,10,0.14
2013-9-13,66,60,53,55,47,41,88,65,42,29.99,29.84,11,2,22,0.14
2013-9-14,73,58,46,46,40,33,84,55,25,30.08,29.97,3,0,10,0.00
2013-9-15,78,62,48,57,47,42,84,61,31,30.01,29.88,5,1,14,0.00
2013-9-16,67,61,56,57,54,49,90,77,62,30.16,29.94,9,3,16,0.01
2013-9-17,76,63,52,53,50,47,85,64,38,30.20,30.03,2,0,12,0.00
2013-9-18,82,70,60,65,58,52,86,67,48,30.02,29.90,2,0,12,0.00
2013-9-19,85,73,66,74,68,64,96,87,68,29.95,29.80,10,1,21,1.30
2013-9-20,80,72,67,70,67,65,94,87,65,29.82,29.66,7,1,17,0.43
2013-9-21,72,63,55,66,52,44,94,72,40,29.78,29.64,3,0,16,0.01
2013-9-22,67,57,47,50,46,41,93,69,39,29.90,29.78,5,1,13,0.01
2013-9-23,70,59,48,48,46,44,85,64,40,29.99,29.89,2,0,10,0.00
2013-9-24,76,62,49,56,50,44,85,67,46,29.96,29.78,1,0,10,0.00
2013-9-25,78,66,57,58,52,48,79,61,41,29.80,29.73,3,0,14,0.00
2013-9-26,80,65,51,58,52,48,93,66,39,29.94,29.80,3,0,14,0.00
2013-9-27,82,67,51,56,48,43,87,55,27,30.04,29.94,1,0,7,0.00
2013-9-28,83,67,53,58,53,48,85,63,40,30.04,29.90,4,0,14,0.00
2013-9-29,66,62,60,62,59,55,95,89,72,29.90,29.85,3,0,13,13.83
2013-9-30,72,65,62,63,61,60,96,88,70,29.90,29.81,5,1,14,13.59
2013-10-1,76,66,60,64,61,58,95,84,60,29.94,29.86,7,1,15,13.59
2013-10-2,78,69,62,69,64,59,94,85,68,29.97,29.90,4,0,10,0.18
2013-10-3,81,72,67,68,65,61,95,81,53,29.93,29.83,6,1,16,29.74
2013-10-4,82,72,66,69,66,64,94,82,61,29.93,29.86,5,0,14,0.00
2013-10-5,75,70,66,70,68,63,95,90,79,29.89,29.76,8,1,19,0.00
2013-10-6,96,65,56,86,62,47,96,90,65,29.77,29.62,6,1,17,0.00
2013-10-7,72,60,53,58,52,48,92,76,56,30.03,29.70,5,1,18,0.00
2013-10-8,71,60,51,57,48,43,95,68,38,30.13,30.03,2,0,10,0.00
2013-10-9,74,60,48,52,46,43,84,64,37,30.12,30.03,1,0,9,0.00
2013-10-10,75,60,47,52,47,44,90,66,34,30.07,29.95,0,0,5,0.00
2013-10-11,79,62,47,52,48,44,92,64,30,30.00,29.89,1,0,7,0.00
2013-10-12,79,64,52,58,53,49,90,70,41,29.98,29.90,4,0,12,0.00
2013-10-13,70,62,52,62,48,38,88,62,32,30.22,29.98,10,1,17,0.00
2013-10-14,70,53,43,56,36,-100,91,62,35,30.23,30.07,4,-8,10,0.01
2013-10-15,67,60,53,62,55,44,94,85,68,30.06,29.79,5,1,14,0.05
2013-10-16,64,57,45,62,50,41,95,76,53,29.87,29.74,3,0,12,0.06
2013-10-17,53,46,41,47,42,39,94,86,68,29.86,29.78,5,1,15,0.12
2013-10-18,65,51,42,48,43,40,94,75,44,29.90,29.80,11,2,20,0.12
2013-10-19,53,45,41,43,39,34,94,80,50,29.87,29.75,5,0,14,0.41
2013-10-20,63,49,38,43,39,34,90,70,42,29.89,29.82,12,4,21,0.41
2013-10-21,62,51,42,48,42,28,84,73,54,29.88,29.77,9,2,19,0.00
2013-10-22,52,41,30,38,30,26,90,68,38,29.94,29.73,5,1,11,0.01
2013-10-23,48,40,34,37,33,25,94,77,41,29.95,29.68,11,1,19,0.08
2013-10-24,41,38,32,36,32,27,93,80,72,30.20,29.94,3,0,10,0.12
2013-10-25,50,37,27,31,25,22,90,66,35,30.35,30.16,4,0,15,0.12
2013-10-26,54,41,31,40,31,25,79,67,54,30.16,29.83,11,3,21,0.00
2013-10-27,56,42,30,36,32,28,93,70,41,30.02,29.94,5,0,12,0.00
2013-10-28,61,45,32,39,33,29,93,66,33,30.19,29.98,1,0,6,0.00
2013-10-29,57,49,40,46,39,33,87,70,58,30.25,30.08,0,0,4,0.01
2013-10-30,64,57,50,62,55,46,96,95,84,30.08,29.84,5,0,14,1.10
2013-10-31,68,62,59,65,59,55,94,90,78,29.84,29.16,18,7,37,9.56
2013-11-1,61,53,48,57,46,39,92,77,56,29.65,29.29,9,3,20,9.59
2013-11-2,55,46,41,43,39,34,94,77,49,30.01,29.64,3,0,17,0.01
2013-11-3,54,43,34,40,36,32,95,76,46,30.23,30.01,3,0,9,0.01
2013-11-4,54,48,42,42,38,34,78,68,57,30.25,30.16,5,1,16,0.00
2013-11-5,58,52,49,46,43,40,88,71,61,30.26,30.05,5,1,11,0.01
2013-11-6,58,53,42,55,46,39,94,79,55,30.04,29.81,11,5,23,0.38
2013-11-7,49,39,34,39,21,-100,90,61,36,30.19,29.99,4,-73,17,0.38
2013-11-8,51,36,28,33,14,-100,91,58,42,30.28,30.09,5,-115,11,0.01
2013-11-9,60,49,37,42,35,28,70,60,47,30.09,29.88,12,5,24,0.01
2013-11-10,49,42,33,37,31,28,84,65,48,30.26,29.99,3,0,14,0.00
2013-11-11,51,40,31,41,30,-100,92,74,55,30.22,29.99,10,-18,22,0.01
2013-11-12,36,18,24,24,-28,-100,82,40,54,30.56,30.22,9,-408,18,0.01
2013-11-13,40,20,24,20,-28,-100,81,33,37,30.55,30.27,8,-382,17,0.01
2013-11-14,30,22,29,20,-10,-100,68,49,64,30.27,30.21,5,-247,11,0.01
2013-11-25,33,32,32,22,21,20,66,64,58,30.11,30.07,8,3,14,0.00
2013-11-26,35,32,30,28,25,22,85,75,66,30.10,29.87,6,1,17,0.00
2013-11-27,30,24,18,26,16,11,82,72,55,30.22,29.90,3,1,13,0.00
2013-11-28,36,25,17,19,14,12,80,64,41,30.36,30.16,12,3,20,0.00
2013-11-29,39,29,19,22,19,14,87,67,47,30.55,30.36,4,0,11,0.00
2013-11-30,50,37,26,30,25,20,78,63,44,30.40,30.05,10,2,17,0.00
2013-12-1,53,41,34,38,30,24,85,66,53,30.05,29.86,6,1,14,0.00
2013-12-2,48,41,36,38,35,31,88,79,67,29.85,29.67,3,0,10,0.01
2013-12-3,51,44,36,47,41,34,96,91,83,29.75,29.66,5,0,11,0.01
2013-12-4,60,53,46,56,51,43,95,91,86,29.70,29.53,8,2,18,0.01
2013-12-5,59,39,24,55,35,22,90,84,72,30.12,29.59,3,0,16,0.03
2013-12-6,27,25,23,23,21,18,91,86,78,30.35,30.09,5,0,10,0.03
2013-12-7,24,18,11,18,11,7,85,77,64,30.56,30.35,5,0,10,0.12
2013-12-8,29,24,17,27,19,11,94,82,72,30.46,29.92,6,2,16,0.12
2013-12-9,30,26,20,28,20,12,94,79,65,30.17,29.90,6,2,17,0.00
2013-12-10,27,19,12,16,11,7,87,71,49,30.27,30.07,10,2,19,0.01
2013-12-11,32,18,11,20,12,4,87,77,61,30.47,30.23,7,1,13,0.02
2013-12-12,19,11,2,7,1,-4,77,64,49,30.50,30.27,8,2,14,0.02
2013-12-13,35,24,15,30,15,1,94,68,52,30.26,30.04,10,2,20,0.00
2013-12-14,35,32,27,33,30,23,94,93,86,30.04,29.63,3,1,9,0.08
2013-12-15,28,24,20,24,17,11,90,77,66,30.04,29.83,7,2,18,0.08
2013-12-16,28,24,19,26,21,16,93,89,83,30.04,29.91,4,1,9,0.00
2013-12-17,28,25,22,26,22,19,93,87,78,30.07,29.92,6,1,13,0.01
2013-12-18,33,25,14,20,16,10,91,69,54,30.18,29.93,9,3,17,0.01
2013-12-19,46,40,32,41,31,19,83,71,58,29.94,29.79,7,4,13,0.26
2013-12-20,58,52,46,56,48,41,96,88,78,29.79,29.63,10,6,19,1.63
2013-12-21,55,45,39,54,44,38,97,95,93,29.69,29.37,9,2,17,3.89
2013-12-22,62,43,34,59,41,30,97,91,86,29.98,29.20,15,6,28,3.99
2013-12-23,34,28,18,31,22,9,89,78,66,30.34,29.99,4,1,15,0.00
2013-12-24,23,14,7,12,6,0,78,71,58,30.52,30.34,3,1,15,0.00
2013-12-25,30,24,18,24,16,11,83,71,63,30.38,30.10,10,5,22,0.01
2013-12-26,38,32,25,27,24,19,86,70,55,30.28,30.07,8,3,21,0.00
2013-12-27,46,36,28,33,28,22,81,72,58,30.30,30.16,9,3,14,0.00
2013-12-28,51,40,33,38,31,28,84,73,57,30.15,29.88,9,4,16,0.00
2013-12-29,47,37,28,36,31,23,95,80,61,29.98,29.70,7,2,16,0.00
2013-12-30,28,23,20,26,14,10,90,71,58,30.21,29.98,4,1,13,0.00
2013-12-31,30,26,20,21,15,11,75,64,52,30.29,30.10,7,2,18,0.00
2014-1-1,40,31,23,30,24,18,85,76,62,30.18,29.92,7,2,13,0.00
2014-1-2,30,18,6,26,14,-1,92,84,70,30.27,29.81,14,5,24,0.00